Date String (YYYY-MM-DD hh:mm:ss) UTC,Instrument flags,Ambient pressure (hPa),Sample flow (lpm),Bypass flow (lpm),Sample temperature (°C),Ambient temperature (°C),ASC tube jacket temperature (°C),LED temperature (°C),Box temperature (°C),Sample RH (%),Span deviation,Mass concentration (μg/m³),Mass concentration (μg/m³),Mass concentration (μg/m³)
DateTimeUTC,F1_M11,P_M11,Q1_M11,Q2_M11,T1_M11,T2_M11,T3_M11,T4_M11,T5_M11,U1_M11,ZSPAN_M11,X0_M11,X2_M11,X1_M11
2022-09-10 22:00:00,,0834.5,5.00,0.00,28.4,26.9,00.0,37.1,30.2,26.6,0000.0,0003.15,0002.26,0001.95
2022-09-10 22:01:00,,0834.4,5.00,0.00,28.4,26.9,00.0,37.1,30.2,26.7,0000.0,0003.07,0002.23,0001.92
2022-09-10 22:02:00,,0834.5,5.00,0.00,28.4,26.9,00.0,37.1,30.2,26.7,0000.0,0003.06,0002.22,0001.91
2022-09-10 22:03:00,,0834.5,4.98,0.00,28.4,26.9,00.0,37.1,30.2,26.7,0000.0,0003.14,0002.23,0001.89
2022-09-10 22:04:00,,0834.5,5.00,0.00,28.4,26.9,00.0,37.1,30.3,26.7,0000.0,0003.05,0002.20,0001.87
2022-09-10 22:05:00,,0834.6,5.00,0.00,28.4,26.9,00.0,37.1,30.3,26.7,0000.0,0002.93,0002.15,0001.85
2022-09-10 22:06:00,,0834.6,5.01,0.00,28.4,26.9,00.0,37.1,30.3,26.7,0000.0,0003.02,0002.17,0001.83
2022-09-10 22:07:00,,0834.6,5.00,0.00,28.4,26.9,00.0,37.1,30.2,26.8,0000.0,0003.06,0002.18,0001.83
2022-09-10 22:08:00,,0834.5,5.01,0.00,28.4,26.9,00.0,37.1,30.2,26.7,0000.0,0003.06,0002.15,0001.82
2022-09-10 22:09:00,,0834.6,5.00,0.00,28.4,26.9,00.0,37.1,30.2,26.8,0000.0,0003.06,0002.14,0001.81
2022-09-10 22:10:00,,0834.6,5.01,0.00,28.4,26.9,00.0,37.1,30.2,26.9,0000.0,0002.98,0002.13,0001.81
2022-09-10 22:11:00,,0834.6,5.00,0.00,28.4,26.9,00.0,37.1,30.2,26.9,0000.0,0003.02,0002.14,0001.82
2022-09-10 22:12:00,,0834.6,5.00,0.00,28.4,26.9,00.0,37.1,30.2,27.0,0000.0,0003.04,0002.15,0001.83
2022-09-10 22:13:00,,0834.6,5.00,0.00,28.4,26.9,00.0,37.1,30.3,27.0,0000.0,0003.00,0002.13,0001.83
2022-09-10 22:14:00,,0834.7,5.00,0.00,28.4,27.0,00.0,37.1,30.3,26.7,0000.0,0002.91,0002.10,0001.83
2022-09-10 22:15:00,,0834.7,5.00,0.00,28.4,27.0,00.0,37.1,30.3,26.7,0000.0,0002.93,0002.12,0001.84
2022-09-10 22:16:00,,0834.6,5.00,0.00,28.4,27.0,00.0,37.1,30.3,26.7,0000.0,0002.95,0002.13,0001.86
2022-09-10 22:17:00,,0834.7,4.98,0.00,28.4,27.0,00.0,37.2,30.3,26.6,0000.0,0002.93,0002.14,0001.89
2022-09-10 22:18:00,,0834.7,5.01,0.00,28.4,27.0,00.0,37.2,30.3,26.8,0000.0,0002.85,0002.12,0001.90
2022-09-10 22:19:00,,0834.7,5.00,0.00,28.4,27.0,00.0,37.2,30.3,26.9,0000.0,0002.87,0002.14,0001.91
2022-09-10 22:20:00,,0834.6,5.00,0.00,28.5,27.0,00.0,37.2,30.3,26.7,0000.0,0002.97,0002.18,0001.94
2022-09-10 22:21:00,,0834.7,5.00,0.00,28.5,27.0,00.0,37.2,30.3,26.7,0000.0,0002.90,0002.16,0001.97
2022-09-10 22:22:00,,0834.7,5.00,0.00,28.5,27.0,00.0,37.2,30.3,26.7,0000.0,0002.93,0002.18,0001.98
2022-09-10 22:23:00,,0834.7,5.00,0.00,28.5,27.0,00.0,37.2,30.3,26.6,0000.0,0003.03,0002.22,0001.99
2022-09-10 22:24:00,,0834.7,5.00,0.00,28.5,27.0,00.0,37.2,30.3,26.6,0000.0,0003.06,0002.23,0001.99
2022-09-10 22:25:00,,0834.7,5.00,0.00,28.5,27.0,00.0,37.2,30.3,26.6,0000.0,0003.04,0002.21,0001.98
2022-09-10 22:26:00,,0834.7,5.00,0.00,28.5,27.0,00.0,37.2,30.4,26.5,0000.0,0003.06,0002.20,0001.95
2022-09-10 22:27:00,,0834.7,5.00,0.00,28.5,27.1,00.0,37.2,30.4,26.6,0000.0,0003.12,0002.21,0001.91
2022-09-10 22:28:00,,0834.7,4.98,0.00,28.5,27.1,00.0,37.2,30.3,26.7,0000.0,0003.03,0002.15,0001.86
2022-09-10 22:29:00,,0834.7,5.00,0.00,28.5,27.0,00.0,37.2,30.3,26.7,0000.0,0003.11,0002.16,0001.81
2022-09-10 22:30:00,,0834.7,5.00,0.00,28.5,27.1,00.0,37.2,30.4,26.5,0000.0,0003.05,0002.13,0001.77
2022-09-10 22:31:00,,0834.7,5.00,0.00,28.5,27.1,00.0,37.2,30.4,26.6,0000.0,0002.88,0002.05,0001.71
2022-09-10 22:32:00,,0834.7,5.01,0.00,28.5,27.1,00.0,37.2,30.4,26.9,0000.0,0002.91,0002.03,0001.65
2022-09-10 22:33:00,,0834.7,5.00,0.00,28.5,27.1,00.0,37.2,30.4,27.7,0000.0,0002.88,0001.99,0001.60
2022-09-10 22:34:00,,0834.7,5.00,0.00,28.5,27.1,00.0,37.2,30.4,27.3,0000.0,0002.82,0001.95,0001.55
2022-09-10 22:35:00,,0834.7,5.00,0.00,28.5,27.1,00.0,37.2,30.4,27.2,0000.0,0002.74,0001.90,0001.51
2022-09-10 22:36:00,,0834.7,4.99,0.00,28.5,27.1,00.0,37.2,30.4,26.9,0000.0,0002.66,0001.85,0001.47
2022-09-10 22:37:00,,0834.8,5.00,0.00,28.5,27.1,00.0,37.2,30.4,26.7,0000.0,0002.64,0001.83,0001.44
2022-09-10 22:38:00,,0834.8,5.00,0.00,28.6,27.1,00.0,37.2,30.4,26.6,0000.0,0002.58,0001.79,0001.42
2022-09-10 22:39:00,,0834.8,5.00,0.00,28.6,27.1,00.0,37.3,30.4,26.5,0000.0,0002.60,0001.79,0001.41
2022-09-10 22:40:00,,0834.8,5.00,0.00,28.6,27.1,00.0,37.3,30.4,26.3,0000.0,0002.54,0001.77,0001.40
2022-09-10 22:41:00,,0834.8,5.00,0.00,28.6,27.1,00.0,37.3,30.4,26.3,0000.0,0002.40,0001.71,0001.38
2022-09-10 22:42:00,,0834.8,5.00,0.00,28.6,27.1,00.0,37.3,30.4,26.3,0000.0,0002.39,0001.69,0001.36
2022-09-10 22:43:00,,0834.9,5.00,0.00,28.6,27.1,00.0,37.3,30.4,26.5,0000.0,0002.40,0001.68,0001.35
2022-09-10 22:44:00,,0834.9,5.00,0.00,28.6,27.1,00.0,37.3,30.4,26.4,0000.0,0002.41,0001.68,0001.34
2022-09-10 22:45:00,,0834.8,5.00,0.00,28.6,27.1,00.0,37.3,30.4,26.4,0000.0,0002.33,0001.65,0001.34
2022-09-10 22:46:00,,0834.9,5.00,0.00,28.6,27.1,00.0,37.3,30.4,26.3,0000.0,0002.34,0001.64,0001.32
2022-09-10 22:47:00,,0834.9,4.99,0.00,28.6,27.1,00.0,37.3,30.5,26.5,0000.0,0002.42,0001.67,0001.32
2022-09-10 22:48:00,,0835.0,5.00,0.00,28.6,27.1,00.0,37.3,30.5,26.4,0000.0,0002.40,0001.67,0001.33
2022-09-10 22:49:00,,0834.9,5.00,0.00,28.6,27.2,00.0,37.3,30.5,26.3,0000.0,0002.39,0001.68,0001.34
2022-09-10 22:50:00,,0835.0,5.00,0.00,28.6,27.2,00.0,37.3,30.5,26.3,0000.0,0002.45,0001.69,0001.35
2022-09-10 22:51:00,,0835.0,5.00,0.00,28.6,27.2,00.0,37.3,30.5,26.1,0000.0,0002.56,0001.73,0001.36
2022-09-10 22:52:00,,0835.0,5.01,0.00,28.6,27.2,00.0,37.3,30.5,26.0,0000.0,0002.74,0001.81,0001.39
2022-09-10 22:53:00,,0834.9,5.00,0.00,28.6,27.2,00.0,37.3,30.5,25.9,0000.0,0002.79,0001.82,0001.39
2022-09-10 22:54:00,,0834.9,5.00,0.00,28.6,27.2,00.0,37.3,30.5,26.0,0000.0,0002.70,0001.81,0001.41
2022-09-10 22:55:00,,0835.0,5.00,0.00,28.6,27.2,00.0,37.3,30.5,26.3,0000.0,0002.76,0001.81,0001.42
2022-09-10 22:56:00,,0834.9,4.99,0.00,28.6,27.2,00.0,37.3,30.5,26.3,0000.0,0003.47,0001.83,0001.43
2022-09-10 22:57:00,,0835.0,5.00,0.00,28.6,27.2,00.0,37.3,30.5,26.3,0000.0,0003.48,0001.84,0001.44
2022-09-10 22:58:00,,0834.9,5.00,0.00,28.6,27.2,00.0,37.3,30.5,26.4,0000.0,0003.55,0001.88,0001.44
2022-09-10 22:59:00,,0835.0,5.00,0.00,28.6,27.2,00.0,37.3,30.5,26.3,0000.0,0003.68,0001.92,0001.42
